Home > Weather > Patna > Past weeks

Flag for India Past Weather in Patna, Bihar, India — Yesterday and Last 2 Weeks

Now
86 °F

Passing clouds.


Feels Like: 95 °F
Forecast: 82 / 100 °F
Wind: 9 mph from East

Location: Patna Airport

Current Time: May 31, 2016 at 11:41:46 PM

Latest Report: May 31, 2016 at 9:00 PM


Visibility: 3 mi

Pressure: 29.59 "Hg

Humidity: 70%

Dew Point: 75 °F

Location of PatnaLocation

Past Weather in Patna — Graph

°F

Patna Temperature Yesterday

Maximum temperature yesterday: 95 °F (at 2:00 PM)
Minimum temperature yesterday: 79 °F (at 5:30 AM)
Average temperature yesterday: 89 °F

High & Low Weather Summary for the Past Weeks

 TemperatureHumidityPressure
High108 °F (May 17, 1:00 PM)100% (May 24, 6:30 AM)29.71 "Hg (May 24, 6:30 AM)
Low72 °F (May 21, 8:30 AM)32% (May 17, 1:00 PM)29.39 "Hg (May 17, 4:00 PM)
Average89 °F64%29.53 "Hg
* Reported May 16 8:30 PM — May 31 9:00 PM, Patna, Weather by CustomWeather, © 2016

Note: Actual official high and low records may vary slightly from our data, if they occured in-between our weather recording intervals... More about our weather records

Advertising

Patna Weather History for the Previous 24 Hours

Scroll right to see more
 ConditionsComfort  
Time TempWeatherWind HumidityBarometerVisibility
9:00 PM
Tue, May 31
86 °FPassing clouds.9 mph70%29.59 "Hg3 mi
8:00 PM88 °FPassing clouds.10 mph66%29.59 "Hg3 mi
7:30 PM91 °FPassing clouds.9 mph67%29.56 "Hg3 mi
7:00 PM91 °FScattered clouds.9 mph67%29.56 "Hg3 mi
6:31 PM91 °FScattered clouds.7 mph67%29.53 "Hg3 mi
6:30 PM91 °FScattered clouds.7 mph67%29.53 "Hg3 mi
6:00 PM93 °FScattered clouds.6 mph63%29.53 "Hg3 mi
5:30 PM95 °FScattered clouds.6 mph60%29.53 "Hg3 mi
5:00 PM95 °FScattered clouds.6 mph47%29.53 "Hg3 mi
4:30 PM97 °FScattered clouds.6 mph44%29.53 "Hg3 mi
4:00 PM97 °FScattered clouds.6 mph44%29.53 "Hg3 mi
3:30 PM97 °FScattered clouds.6 mph44%29.53 "Hg3 mi
3:00 PM97 °FScattered clouds.2 mph44%29.56 "Hg3 mi
2:30 PM99 °FScattered clouds.3 mph42%29.56 "Hg3 mi
2:00 PM99 °FScattered clouds.8 mph47%29.56 "Hg3 mi
1:30 PM99 °FScattered clouds.6 mph47%29.59 "Hg3 mi
1:00 PM97 °FScattered clouds.7 mph50%29.62 "Hg3 mi
12:30 PM97 °FScattered clouds.9 mph50%29.62 "Hg3 mi
12:00 PM95 °FHaze.9 mph53%29.62 "Hg3 mi
11:30 AM95 °FHaze.12 mph53%29.65 "Hg3 mi
11:00 AM93 °FHaze.9 mph53%29.65 "Hg3 mi
10:30 AM93 °FHaze.8 mph53%29.65 "Hg3 mi
10:00 AM91 °FHaze.8 mph56%29.65 "Hg3 mi
9:30 AM91 °FHaze.8 mph56%29.65 "Hg2 mi
9:00 AM91 °FHaze.7 mph56%29.65 "Hg2 mi
8:30 AM90 °FHaze.6 mph59%29.68 "Hg2 mi
8:00 AM86 °FHaze.3 mph75%29.68 "Hg1 mi
7:30 AM84 °FHaze.No wind79%29.68 "Hg1 mi
7:00 AM81 °FHaze.No wind84%29.65 "Hg1 mi
6:30 AM79 °FHaze.No wind94%29.62 "Hg1 mi
5:30 AM79 °FHaze.No wind94%29.59 "Hg1 mi
Weather by CustomWeather, © 2016

See weather overviewHow to use our weather pages